Battle Mountain, Nevada, United States (89820)
Lat: 40.64N, Lon: 116.93W
Wx Zone: NVZ036
Local Info
Past Weather Observations for Monday, August 22, 2016

NOTE: This archive is for the closest National Weather Service station to Battle Mountain. Information may differ from the station used for current weather conditions.

Click here for Long-term Archive

Time Weather Temperature Dewpoint Humidity Pressure Winds Precip Visibility
23:56
Clear
68°F / 20°C 34°F / 1°C 28% 30.04 in
(1017 mb)
Calm - 10SM
22:56
Clear
72°F / 22°C 34°F / 1°C 25% 30.04 in
(1017 mb)
Calm - 10SM
21:56
Clear
75°F / 24°C 34°F / 1°C 22% 30.04 in
(1017 mb)
SSW 11.5 mph
(SSW 19 kph)
- 10SM
20:56
Clear
Hazy
75°F / 24°C 36°F / 2°C 24% 30.04 in
(1017 mb)
SW 8.1 mph
(SW 13 kph)
- 4SM
19:56
Clear
81°F / 27°C 32°F / 0°C 17% 30.01 in
(1016 mb)
SSW 9.2 mph
(SSW 15 kph)
- 10SM
18:56
Clear
81°F / 27°C 30°F / -1°C 16% 30.01 in
(1016 mb)
SW 13.8 mph
(SW 22 kph)
- 10SM
17:56
Clear
82°F / 28°C 30°F / -1°C 15% 29.98 in
(1015 mb)
SW 20.7 mph
(SW 33 kph)
- 10SM
16:56
Clear
84°F / 29°C 28°F / -2°C 13% 29.98 in
(1015 mb)
SSW 19.6 mph
(SSW 32 kph)
- 10SM
15:56
Clear
88°F / 31°C 28°F / -2°C 12% 29.98 in
(1015 mb)
W 21.9 mph
(W 35 kph)
- 8SM
14:56
Clear
90°F / 32°C 27°F / -3°C 10% 29.98 in
(1015 mb)
W 18.4 mph
(W 30 kph)
- 10SM
13:56
Clear
91°F / 33°C 28°F / -2°C 10% 29.98 in
(1015 mb)
SSW 9.2 mph
(SSW 15 kph)
- 10SM
12:56
Clear
90°F / 32°C 27°F / -3°C 10% 30.01 in
(1016 mb)
SSW 11.5 mph
(SSW 19 kph)
- 10SM
11:56
Clear
90°F / 32°C 27°F / -3°C 10% 30.01 in
(1016 mb)
W 9.2 mph
(W 15 kph)
- 10SM
10:56
Clear
88°F / 31°C 27°F / -3°C 11% 30.04 in
(1017 mb)
W 5.8 mph
(W 9 kph)
- 10SM
09:56
Clear
84°F / 29°C 23°F / -5°C 10% 30.04 in
(1017 mb)
Variable 4.6 mph
(Variable 7 kph)
- 10SM
08:56
Clear
81°F / 27°C 21°F / -6°C 11% 30.06 in
(1018 mb)
W 3.5 mph
(W 6 kph)
- 10SM
07:56
Clear
73°F / 23°C 27°F / -3°C 17% 30.06 in
(1018 mb)
SE 5.8 mph
(SE 9 kph)
- 10SM
06:56
Clear
61°F / 16°C 25°F / -4°C 25% 30.06 in
(1018 mb)
Calm - 10SM
05:56
Clear
54°F / 12°C 25°F / -4°C 33% 30.04 in
(1017 mb)
SSE 3.5 mph
(SSE 6 kph)
- 10SM
04:56
Clear
50°F / 10°C 23°F / -5°C 35% 30.04 in
(1017 mb)
SSE 6.9 mph
(SSE 11 kph)
- 10SM
03:56
Clear
52°F / 11°C 21°F / -6°C 30% 30.01 in
(1016 mb)
SSE 5.8 mph
(SSE 9 kph)
- 10SM
02:56
Clear
54°F / 12°C 27°F / -3°C 35% 30.01 in
(1016 mb)
Calm - 10SM
01:56
Clear
55°F / 13°C 23°F / -5°C 28% 30.01 in
(1016 mb)
SSE 5.8 mph
(SSE 9 kph)
- 10SM
00:56
Clear
63°F / 17°C 23°F / -5°C 22% 29.98 in
(1015 mb)
ENE 4.6 mph
(ENE 7 kph)
0.00 in
(0.00 mm)
10SM
Time Weather Temperature Dewpoint Humidity Pressure Winds Precip Visibility


Weather for websites

WeatherForYou.com, LLC is not responsible for any damages or problems caused by this service. Current weather conditions are obtained from the closest station including government and personal stations which may have varying degrees of accuracy. Weather forecasts are derived from the NOAA NDFD. Like all things, this site belongs to Jesus Christ... He just trusts us to maintain it. If you have any questions or comments email webmaster@weatherforyou.com

Copyright © 2016, WeatherForYou.com LLC. All rights reserved.